GFSFLT1_con_lsi_057.txt.gz
Lid_Strength_Index
6 7 9 8 6 5 4 4 4 4 3 4 5 2 2 0 -0 -0 -0 -1 -1 -1 -1 -1 -1 -1 -1 -1 -1 -1 -1 -1
7 8 6 6 5 5 4 4 3 3 5 3 1 2 1 0 -0 -0 -0 -1 -1 -1 -1 -1 -1 -1 -1 -1 -1 -1 -1 -1
8 8 6 5 4 4 5 4 4 4 5 4 2 1 0 0 -0 0 -0 -1 -1 -1 -1 -1 -1 -1 -1 -1 -1 -1 -1 -2
9 8 6 5 4 4 4 4 4 4 4 4 1 1 1 0 0 -0 -0 -1 -1 -1 -1 -1 -1 -1 -1 -1 -1 -1 -1 -1
8 7 7 5 4 5 4 4 4 3 5 3 2 1 0 0 -0 -0 -0 -0 -1 -1 -1 -1 -1 -1 -1 -1 -1 -1 -1 -1
8 9 8 5 4 3 4 4 2 3 5 5 2 1 0 0 -0 -0 -0 -0 -0 -1 -1 -1 -1 -1 -1 -1 -1 -1 -1 -1
8 8 8 6 6 4 3 3 3 3 3 2 1 1 1 1 1 0 0 -0 -0 -0 -1 -1 -1 -1 -1 -1 -1 -1 -1 -1
6 5 6 6 6 5 4 4 4 3 2 2 1 1 2 2 2 1 1 0 -0 -1 -1 -1 -1 -1 -1 -1 -1 -1 -1 -2
5 4 4 5 5 4 4 5 4 4 3 3 2 2 2 2 2 1 1 0 -0 -1 -1 -1 -0 -1 -1 -1 -1 -1 -2 -2
5 4 5 5 4 5 4 4 3 2 2 2 2 2 2 2 1 1 1 0 -0 -0 -0 -1 -1 -0 -1 -0 -1 -0 -1 -2
4 4 4 4 5 5 5 3 2 2 2 2 2 2 1 1 1 1 1 0 -0 -1 -0 -0 -0 -0 -0 -0 -0 -1 -1 -1
5 5 4 5 5 5 4 3 3 3 3 2 3 2 2 1 1 1 0 0 -0 -0 -1 -0 -0 -0 -0 -1 -1 -1 -1 -1
5 6 6 5 7 7 4 3 3 3 3 2 2 2 2 1 1 0 0 -0 -0 -1 -1 -0 -1 -0 -0 -0 -1 -0 -0 -1
7 5 5 6 9 6 4 4 4 4 3 3 2 2 1 1 1 0 0 -0 -0 -0 -1 -1 -1 -1 -0 -0 -0 -0 -1 -1
8 5 5 6 8 6 5 4 4 4 4 3 3 2 1 1 1 0 -0 -0 -0 -1 -0 -1 -1 -1 -1 -1 -0 -0 -1 -0
9 6 6 7 7 5 5 5 5 4 4 3 3 3 2 1 1 0 -0 -0 -0 -0 -1 -1 -0 -1 -0 -0 -0 -0 -0 -0
8 6 6 7 7 6 5 5 5 4 4 3 3 2 2 1 1 1 0 0 0 0 -0 0 1 1 1 1 1 0 -0 -1
9 7 7 7 7 6 5 5 5 4 4 4 3 3 2 1 1 1 1 0 0 0 0 0 0 0 0 0 0 0 -0 -0
10 8 6 7 8 7 5 5 4 4 3 3 3 3 2 2 2 1 1 1 1 0 0 0 -0 -0 0 0 0 1 1 1
10 10 12 7 12 8 7 6 5 5 4 4 3 3 2 2 2 2 1 1 0 0 0 0 -0 0 1 2 2 1 1 0

GFSFLT1_con_lsi_060.txt.gz
Lid_Strength_Index
7 8 10 9 6 6 5 4 4 4 3 4 5 3 2 1 0 0 0 -0 -0 -1 -1 -1 -1 -1 -1 -1 -1 -1 -1 -1
9 9 8 7 6 5 5 4 4 4 5 3 2 2 1 0 0 1 0 -0 -0 -1 -1 -1 -1 -1 -1 -1 -1 -1 -1 -1
9 9 7 5 5 5 5 5 4 4 5 4 2 1 1 1 0 1 0 -0 -0 -1 -1 -1 -1 -1 -1 -1 -1 -1 -1 -1
10 9 7 5 5 5 5 4 4 5 5 4 1 2 1 0 0 0 0 0 -0 -1 -1 -1 -1 -1 -1 -1 -1 -1 -1 -1
9 9 7 6 4 5 5 5 5 3 5 3 3 1 1 1 0 0 0 0 -0 -0 -1 -1 -1 -1 -1 -1 -1 -1 -1 -1
8 9 9 6 5 4 5 5 3 3 5 5 3 1 1 1 1 0 0 0 0 -0 -0 -0 -0 -1 -1 -1 -1 -1 -1 -1
9 8 7 5 6 5 4 4 4 3 3 2 1 1 2 2 2 1 1 1 0 0 0 -0 -0 -1 -1 -1 -1 -1 -1 -1
6 6 6 5 5 5 5 5 5 4 2 2 2 2 2 3 2 2 1 1 0 0 0 -0 -0 -1 -0 -0 -1 -0 -1 -1
6 5 5 5 5 4 5 6 5 4 3 3 2 2 2 2 2 2 1 1 1 0 0 0 0 -0 -0 -0 -0 -0 -0 -1
5 5 5 6 5 5 5 5 3 3 3 3 3 3 3 2 2 2 1 1 1 0 0 0 -0 0 0 0 0 0 -0 -0
5 5 5 4 6 5 5 3 3 3 3 3 3 3 2 2 1 1 1 1 1 0 1 0 0 -0 0 0 0 0 -0 -0
6 6 6 6 5 5 5 3 3 3 4 4 3 3 2 2 2 -2 -1 -0 0 1 1 0 0 -0 0 0 -0 0 0 -0
6 6 6 6 7 7 4 4 4 4 3 3 3 2 2 2 2 1 -0 -3 -1 1 1 1 1 0 0 0 0 0 0 -0
7 6 6 6 9 6 5 4 5 4 4 3 3 2 2 2 1 1 0 0 -0 0 1 1 1 1 0 0 0 0 0 -0
10 6 6 6 8 6 4 5 5 5 4 4 3 3 2 2 1 1 1 1 0 0 0 1 1 0 0 0 0 0 -0 0
11 8 7 7 7 6 5 5 5 5 4 4 4 3 2 2 1 1 1 1 0 0 0 -0 0 0 0 1 1 0 0 0
9 8 8 8 7 6 5 5 5 5 5 4 4 3 2 2 2 1 1 2 1 1 1 1 1 2 2 2 1 1 0 0
9 8 8 8 9 7 6 5 5 5 5 5 4 3 3 2 2 2 2 2 2 1 1 1 1 1 1 1 1 1 0 0
11 9 8 9 10 8 6 5 5 4 4 4 4 4 3 3 2 2 2 2 2 2 1 1 1 1 1 1 1 1 1 1
9 10 13 9 14 9 7 7 6 5 5 4 4 3 3 3 3 2 2 2 2 1 1 1 1 2 2 3 3 2 1 1

GFSFLT1_con_lsi_063.txt.gz
Lid_Strength_Index
12 13 13 13 9 8 7 5 6 6 5 5 6 4 4 2 1 0 1 0 -0 -1 -1 -1 -1 -1 -1 -1 -1 -1 -1 -1
13 13 11 9 8 7 7 7 5 5 6 4 2 3 2 1 0 1 1 0 -0 -1 -1 -1 -1 -1 -1 -1 -1 -1 -1 -1
14 12 9 7 7 7 7 7 7 6 6 5 3 2 1 1 1 1 1 0 -0 -1 -1 -1 -1 -1 -1 -1 -1 -1 -1 -1
14 12 9 7 7 7 8 8 6 6 6 6 3 2 2 1 1 0 1 0 0 -1 -1 -1 -1 -1 -1 -1 -1 -1 -1 -1
12 11 9 7 8 8 8 8 8 7 8 5 4 2 2 1 1 1 0 0 0 0 -0 -1 -1 -1 -1 -1 -1 -1 -1 -1
10 10 10 6 6 7 8 7 5 6 8 7 4 2 2 2 3 1 1 1 1 0 0 0 -0 -1 -1 -1 -1 -1 -1 -1
10 9 8 6 7 6 5 6 6 6 5 3 2 3 4 3 3 2 1 1 1 0 0 0 0 -0 -1 -1 -1 -1 -1 -1
7 7 7 6 6 6 6 7 6 6 3 3 2 3 4 4 4 3 2 2 1 1 1 0 -0 0 0 -0 0 -0 -0 0
7 6 5 6 6 5 6 8 6 7 6 3 3 3 3 4 4 3 2 2 1 1 1 0 0 0 0 0 0 -0 0 0
7 6 6 6 5 6 5 6 4 4 5 5 4 5 4 3 4 3 2 2 1 1 1 1 0 0 0 0 0 0 -0 0
8 8 7 6 6 6 6 4 3 3 3 5 5 4 4 4 3 3 2 2 2 1 1 1 1 0 0 0 0 0 1 0
9 10 9 9 8 6 6 4 4 4 4 4 4 3 4 4 4 3 2 3 2 3 1 1 1 1 1 0 0 1 1 1
9 9 9 8 10 9 6 5 5 4 4 4 4 5 4 4 3 3 3 2 3 2 1 1 1 1 1 0 0 1 1 0
11 8 7 8 12 8 7 6 6 5 4 4 4 5 4 3 3 2 2 3 1 1 1 1 1 1 1 1 1 1 1 0
12 9 8 9 10 7 6 6 6 6 5 4 4 4 4 3 3 2 3 2 3 1 1 1 1 1 1 1 1 1 0 1
13 10 10 10 10 9 7 6 6 5 5 5 4 4 3 3 3 2 2 2 2 3 1 1 1 1 2 3 2 2 1 1
11 9 10 11 11 10 8 8 8 6 6 5 5 4 3 3 2 3 2 2 2 2 2 3 2 3 3 3 3 2 1 1
11 9 10 11 11 10 9 9 8 8 6 5 5 4 4 4 3 3 3 2 2 2 2 2 2 2 2 2 2 1 1 1
12 10 9 11 12 11 9 9 8 7 7 5 5 4 4 4 4 3 3 3 2 2 2 2 2 2 2 2 2 2 2 2
10 12 15 11 17 13 11 10 9 8 7 6 5 4 4 4 4 4 3 2 2 2 2 2 1 2 3 3 4 3 2 1

GFSFLT1_con_lsi_069.txt.gz
Lid_Strength_Index
14 17 16 15 10 10 9 9 9 10 8 7 6 4 4 2 1 0 1 0 0 -1 -0 -1 -1 -1 -1 -1 -1 -1 -1 -1
14 16 13 11 9 9 10 9 9 9 9 4 3 3 2 1 1 1 1 0 -0 -1 -1 -1 -1 -1 -1 -1 -1 -1 -1 -1
16 15 13 10 8 9 10 10 9 9 10 8 4 2 1 2 1 1 1 0 0 -1 -1 -1 -1 -1 -1 -1 -1 -1 -1 -1
16 14 11 9 7 9 10 9 9 10 10 8 3 3 2 1 2 1 1 0 0 -0 -1 -1 -1 -1 -1 -0 -1 -1 -1 -1
14 13 11 9 6 8 9 9 9 9 10 7 4 2 2 2 2 1 1 1 0 0 -0 -1 -1 -1 -0 -0 -0 -0 -0 -1
12 12 12 7 6 7 8 7 7 7 9 9 5 2 2 3 3 2 1 1 1 0 0 0 0 -1 -1 -1 -0 -0 -1 -1
11 11 11 7 8 6 5 7 6 7 7 5 3 2 2 3 3 2 1 1 1 1 0 0 0 -0 -1 -1 -1 -1 -1 -1
8 7 8 7 7 6 6 6 7 6 6 5 4 3 3 4 4 3 3 2 1 1 1 0 0 0 0 0 0 0 0 0
8 7 7 8 8 6 7 8 7 7 7 7 7 6 5 3 3 3 2 2 1 1 0 0 0 0 0 0 0 0 0 0
10 9 8 9 8 8 7 7 5 5 5 7 7 7 6 4 5 3 2 2 1 1 1 1 0 0 0 0 0 0 0 0
11 11 11 10 11 11 10 8 6 6 5 6 6 7 6 5 5 3 3 2 1 1 1 1 1 1 0 0 0 0 0 0
11 11 11 11 11 10 10 7 7 7 7 6 7 6 7 6 5 4 2 2 1 1 1 1 2 1 1 0 0 0 0 0
11 11 11 10 12 12 9 8 9 8 7 6 5 5 7 6 5 3 3 2 2 1 1 1 1 1 1 1 1 1 1 0
13 12 11 11 14 10 9 9 10 9 8 7 7 5 5 5 5 4 4 2 2 1 1 1 1 1 1 0 0 1 1 1
14 11 11 12 14 11 10 10 11 11 10 9 9 8 6 5 4 5 3 3 2 2 2 2 2 1 1 0 1 1 1 1
15 12 11 12 12 10 9 9 10 11 11 10 9 9 8 6 4 5 4 3 2 2 2 2 1 1 1 1 1 1 1 1
13 11 12 13 12 11 10 10 10 10 11 11 10 9 8 8 6 4 4 4 3 2 2 1 2 2 2 2 2 2 2 1
12 10 11 12 12 10 10 11 10 10 10 10 10 10 9 8 8 7 6 4 3 2 2 2 2 1 2 2 3 2 2 2
14 11 11 13 14 13 11 10 10 10 10 9 9 10 10 9 9 9 7 6 3 3 2 2 1 3 4 3 3 3 3 3
12 14 17 13 19 15 13 12 11 10 11 10 10 9 9 8 8 9 8 6 4 2 2 2 1 3 3 3 3 3 3 3

GFSFLT1_con_lsi_072.txt.gz
Lid_Strength_Index
14 17 17 16 12 11 9 8 10 11 9 10 6 4 4 3 2 2 1 0 -0 -0 -1 -1 -1 -1 -1 -1 -1 -1 -1 -1
14 17 14 13 11 11 9 8 10 10 10 8 4 3 2 3 2 2 1 0 -0 -1 -1 -1 -1 -1 -1 -1 -1 -1 -1 -1
16 14 13 12 10 10 9 9 10 10 10 9 5 2 2 2 2 2 1 0 -0 -0 -0 -1 -1 -1 -1 -1 -1 -1 -1 -1
16 14 12 11 10 10 10 8 9 10 10 10 3 3 3 2 2 2 1 0 0 -0 -0 -0 -1 -1 -1 -1 -1 -1 -1 -1
14 13 12 11 9 9 9 8 8 8 10 8 6 2 3 3 2 1 0 0 0 0 -0 -1 -1 -1 -1 -1 -1 -1 -1 -1
12 12 13 9 8 8 8 7 5 6 9 9 4 3 3 2 2 2 1 1 0 0 0 0 -0 -1 -1 -1 -1 -1 -1 -1
11 11 10 8 9 6 5 6 6 6 7 6 3 2 3 3 2 2 1 1 1 0 0 0 0 -0 -1 -1 -1 -1 -1 -1
8 8 9 8 8 7 6 6 7 7 6 6 3 3 4 4 4 3 3 2 1 1 0 0 -0 0 0 0 -0 -0 -0 -0
8 8 8 9 9 8 8 8 7 7 8 7 7 5 4 4 3 3 2 2 1 1 0 0 0 0 -0 -0 0 0 0 0
11 10 11 11 10 11 9 8 6 7 8 7 8 8 6 3 3 3 2 2 1 0 0 0 0 0 0 0 -0 0 0 0
11 11 11 10 11 11 11 8 7 7 7 8 8 7 5 5 4 2 2 2 1 1 1 0 0 0 0 0 0 0 -0 -0
11 11 11 11 11 11 10 8 8 7 8 8 8 7 6 5 6 5 3 2 1 1 1 0 1 1 0 0 0 0 -0 -0
12 12 13 11 13 13 10 9 9 8 8 8 8 8 7 5 5 5 4 1 1 1 1 1 1 1 1 1 1 0 0 -0
15 13 12 12 16 11 10 10 10 10 9 9 9 10 9 7 5 5 4 2 1 1 1 1 2 2 1 1 1 1 1 0
14 12 12 13 15 11 9 10 11 11 10 10 9 9 9 9 8 7 6 5 2 1 1 1 1 1 1 0 1 0 0 0
15 12 12 13 13 11 10 10 11 11 11 10 9 9 8 8 9 8 7 6 4 1 1 2 2 2 1 1 0 0 0 1
13 11 12 13 13 11 10 10 11 11 11 11 10 9 8 8 8 7 6 5 5 3 1 2 2 3 3 2 1 1 0 0
13 11 12 13 13 11 10 11 10 10 10 10 10 10 9 9 8 9 8 7 6 5 4 1 1 1 1 2 1 1 1 0
14 12 12 13 15 14 12 11 10 10 10 9 9 9 10 9 8 9 9 9 6 6 5 3 1 2 3 3 3 3 2 1
13 15 18 13 20 15 13 12 11 11 11 11 11 7 7 8 8 7 8 8 8 6 5 4 1 2 2 3 3 2 2 1

GFSFLT1_con_lsi_075.txt.gz
Lid_Strength_Index
10 12 15 14 11 9 8 6 6 6 6 7 6 3 3 1 1 1 -0 -1 -1 -1 -1 -1 -1 -1 -1 -1 -1 -1 -1 -1
11 13 13 12 10 8 8 6 5 5 6 6 3 2 1 0 1 1 -0 -1 -1 -1 -1 -1 -1 -1 -1 -1 -1 -1 -1 -1
11 12 11 10 9 7 9 7 5 4 6 6 3 1 1 0 1 1 -0 -1 -1 -1 -1 -1 -1 -1 -1 -1 -1 -1 -1 -1
13 12 10 10 9 9 8 6 4 5 5 5 2 2 1 1 1 1 0 -0 -1 -1 -1 -1 -1 -1 -1 -1 -1 -1 -1 -1
11 11 11 10 8 8 8 6 5 3 6 4 3 1 1 1 1 0 -0 -0 -0 -1 -1 -1 -1 -1 -1 -1 -1 -1 -1 -1
9 11 11 8 7 7 7 6 3 3 6 6 4 1 1 1 1 0 -0 -0 -0 -1 -1 -1 -1 -1 -1 -1 -1 -1 -1 -1
9 9 9 6 7 7 5 5 4 3 4 4 4 1 2 2 1 1 1 0 -0 -0 -1 -1 -1 -1 -1 -1 -1 -1 -1 -1
7 6 7 6 7 8 8 6 5 4 3 4 6 2 2 3 2 2 1 1 0 -0 -0 -1 -0 -1 -1 -1 -1 -1 -1 -1
6 5 7 7 8 7 8 8 5 6 5 6 6 5 5 3 2 2 1 1 0 -0 -0 -0 -0 -1 -1 -1 -1 -1 -1 -1
6 8 9 9 9 9 9 8 6 6 5 6 7 6 5 4 3 2 1 1 0 -0 -0 -0 -0 -0 -0 -0 -1 -0 -1 -1
8 8 9 8 10 10 9 8 6 6 5 6 7 7 5 3 3 3 2 1 0 0 0 -0 -0 -0 -0 -0 -0 -1 -1 -1
8 8 8 10 9 9 8 8 7 7 6 6 6 6 5 4 2 2 2 1 0 0 0 -0 0 -0 -0 -0 -0 -1 -1 -1
9 9 10 9 11 10 9 8 8 7 5 6 7 7 7 6 4 3 3 2 0 0 -0 -0 0 0 -0 -0 -0 -0 -0 -1
10 10 9 10 12 10 9 9 9 9 8 7 7 6 6 6 5 3 5 3 1 0 0 0 0 0 0 -0 -0 -0 -0 -1
11 9 10 10 12 10 8 9 10 9 9 8 7 6 5 6 6 5 3 5 3 1 0 0 -0 -0 -0 -0 -0 -0 -1 -0
12 10 10 10 11 9 9 9 9 8 9 8 7 7 5 6 6 6 5 3 5 2 -0 0 0 0 0 0 0 -0 -0 -0
10 9 10 10 10 9 8 8 8 8 7 8 8 6 6 6 6 6 4 3 3 4 2 1 1 1 1 2 1 0 0 -0
10 9 9 10 11 9 8 8 7 7 7 6 7 8 8 6 5 4 4 3 2 2 3 1 1 1 1 1 1 0 -0 -0
12 10 9 10 11 10 8 7 7 6 6 6 7 7 8 6 5 4 4 4 3 3 2 1 -0 0 1 0 1 1 1 1
11 12 14 10 16 11 10 9 8 7 7 7 7 6 5 5 6 5 5 4 4 3 3 3 1 -0 1 2 2 1 1 1

GFSFLT1_con_lsi_078.txt.gz
Lid_Strength_Index
8 10 11 10 9 8 7 6 5 4 3 6 5 2 2 0 -0 -0 -1 -1 -1 -1 -1 -1 -1 -1 -1 -1 -1 -1 -1 -1
10 10 9 9 8 7 7 6 6 4 5 5 2 2 1 -0 -0 -0 -0 -1 -1 -1 -1 -1 -1 -1 -1 -1 -1 -1 -1 -1
9 10 9 8 8 8 8 7 6 4 5 5 2 0 0 0 -0 0 -0 -1 -1 -1 -1 -1 -1 -1 -1 -1 -1 -1 -1 -1
9 9 9 8 8 7 6 7 6 5 4 4 1 1 1 0 -0 0 0 -1 -1 -1 -1 -1 -1 -1 -1 -1 -1 -1 -1 -1
8 8 8 8 6 8 7 6 6 4 5 3 2 1 0 -0 -0 0 -0 -1 -1 -1 -1 -1 -1 -1 -1 -1 -1 -1 -1 -1
7 8 8 5 6 6 6 6 4 3 5 5 2 2 1 0 0 1 -0 -0 -1 -1 -1 -1 -1 -1 -1 -1 -1 -1 -1 -1
8 8 7 5 6 4 4 5 5 4 3 2 1 2 3 1 1 1 0 -0 -1 -1 -1 -1 -1 -1 -1 -1 -1 -1 -1 -1
5 5 6 5 5 5 6 6 6 4 2 1 2 2 3 3 2 1 1 0 -0 -1 -1 -1 -1 -2 -1 -1 -2 -2 -2 -2
5 4 4 5 5 4 5 6 6 5 4 3 3 3 4 3 2 1 0 0 -0 -1 -1 -1 -1 -1 -1 -1 -1 -1 -2 -2
4 4 5 5 4 5 5 5 5 4 4 3 3 4 4 4 2 2 1 0 0 -0 -0 -1 -1 -1 -1 -1 -1 -1 -1 -2
5 4 4 4 5 5 5 4 6 5 5 4 4 4 4 3 3 2 2 1 -0 -0 -0 -0 -0 -1 -1 -1 -1 -1 -1 -2
5 5 5 6 6 6 5 5 6 5 4 4 4 5 5 5 3 1 1 1 -0 -0 0 -0 0 -0 -0 -1 -1 -1 -1 -1
6 5 6 5 8 8 5 6 6 7 6 4 3 3 5 6 5 4 3 1 1 -0 -1 -0 -1 -0 -0 -1 -1 -1 -1 -2
7 7 6 7 9 7 6 6 7 7 8 6 5 4 5 6 5 4 4 1 1 3 -0 -1 0 -0 -1 -1 -1 -1 -1 -1
9 7 7 7 9 6 6 6 7 7 7 7 6 5 4 6 5 5 3 2 3 -1 1 -0 -0 -0 -1 -1 -0 -1 -1 -1
10 8 7 8 8 7 6 6 7 6 7 7 7 6 4 5 6 5 3 2 2 2 1 -1 -1 -0 -0 -0 -0 -1 -1 -1
8 7 8 8 8 7 6 6 7 6 6 6 6 6 5 5 5 4 2 2 2 2 1 1 0 1 1 1 1 0 -0 -1
8 7 8 8 8 7 6 6 6 6 5 5 5 6 6 5 4 4 3 3 2 2 2 1 0 0 0 0 -0 0 -0 -1
10 8 8 8 9 7 6 6 5 5 5 4 5 5 6 5 4 3 4 3 3 2 2 1 1 1 -0 0 1 1 0 0
9 10 12 8 13 9 7 7 6 6 5 4 4 4 4 3 4 4 3 3 3 3 2 2 1 1 1 3 2 2 1 0